Wind_Speed
18 11 6 8 12 8 7 10 5 5 5 4 5 7 8 9 12 13 8 9 8 9 11 9 12 11 12 11 12 12 13 15 15 16 13 13 13 12 10 10 11 13 12 13
11 8 7 6 7 5 6 8 14 7 3 5 8 8 6 8 9 16 9 8 11 13 12 9 8 7 8 9 8 12 14 15 16 16 14 13 13 11 12 7 16 6 12 13
7 13 3 3 3 10 10 16 14 10 3 11 3 14 14 11 11 11 9 8 7 9 9 9 5 5 6 6 9 12 14 14 15 18 16 15 13 13 13 16 17 19 18 14
6 5 3 7 4 9 6 7 9 9 9 13 19 12 18 14 10 8 5 7 5 9 9 7 5 6 6 8 11 12 13 14 16 18 19 17 17 18 17 14 15 19 16 15
5 6 3 1 9 10 10 12 14 16 14 17 8 5 7 13 8 7 6 7 6 9 9 9 13 12 7 7 11 14 14 16 16 19 18 16 17 18 17 16 15 16 15 16
8 4 5 8 4 4 7 13 17 16 8 6 8 8 14 10 12 5 12 10 10 9 9 9 12 7 9 12 13 17 16 18 20 19 17 18 19 17 17 15 14 14 16 13
5 6 6 7 13 3 9 15 12 13 7 9 12 2 8 13 16 12 15 12 10 5 7 5 5 14 12 13 11 18 18 19 17 21 19 20 18 17 16 15 14 16 14 14
9 5 8 5 7 10 19 8 8 14 15 15 12 6 5 9 11 14 13 8 5 2 3 5 9 10 13 15 17 13 15 16 20 18 18 17 17 15 17 18 18 15 14 14
6 6 4 4 7 8 13 12 16 11 19 14 8 11 10 9 7 4 4 5 0 2 4 9 9 9 15 13 16 10 16 17 20 17 17 17 19 19 18 19 15 14 15 14
6 12 4 7 7 2 13 9 10 8 7 9 17 10 7 10 6 4 2 2 5 2 11 8 10 13 12 17 15 16 17 18 18 16 17 18 17 17 19 18 15 14 12 11
11 6 1 9 8 11 12 8 6 4 7 8 9 7 9 9 11 9 7 5 11 10 9 11 12 16 16 15 18 18 17 18 16 17 18 15 16 19 16 17 14 12 11 6
7 6 8 6 7 4 4 8 6 8 7 7 11 5 4 10 14 9 7 8 9 10 12 14 18 17 17 18 18 17 16 16 17 17 15 15 18 18 15 17 14 12 8 7
7 3 9 7 7 2 6 7 8 4 7 5 10 6 8 9 4 11 12 12 10 12 13 17 17 17 16 18 16 15 16 16 15 15 15 21 20 14 15 17 15 10 9 6
3 3 5 8 8 4 4 6 9 7 7 11 6 6 7 6 10 7 9 9 9 12 16 17 14 13 16 15 14 14 14 14 13 14 20 19 18 15 17 16 18 11 8 8
6 1 1 5 4 4 3 6 7 10 8 6 10 11 9 10 11 10 10 7 12 11 14 14 11 15 15 13 12 13 13 12 13 14 18 22 16 16 15 12 11 14 10 10
2 2 7 6 3 1 1 3 5 6 6 8 10 6 5 6 8 9 6 11 12 14 13 10 13 13 13 12 11 12 11 12 13 16 15 17 21 21 19 15 13 12 11 9
4 1 6 8 3 6 2 9 10 10 9 9 10 10 9 5 2 6 6 4 8 11 10 10 12 11 10 11 11 10 11 11 12 13 14 14 20 21 20 16 17 18 17 15
1 3 4 4 5 1 7 9 5 10 8 9 11 10 10 10 7 4 6 10 10 9 9 9 10 9 9 10 8 9 10 11 12 12 14 16 19 15 12 11 14 15 16 15
5 6 1 4 2 7 4 10 9 11 6 9 10 11 6 6 2 10 7 7 7 7 7 8 8 8 6 7 7 8 10 10 11 13 14 14 13 13 14 15 14 16 14 16
5 5 2 4 3 4 8 9 11 10 2 7 12 11 12 11 6 6 2 7 7 6 5 7 7 6 6 6 8 9 11 10 10 11 11 10 12 15 21 20 20 24 20 17
3 3 3 3 1 7 9 11 12 5 6 11 10 9 9 8 8 5 7 5 5 4 5 5 5 5 6 6 8 10 10 10 8 8 6 7 9 11 12 17 14 14 14 11
4 5 5 3 3 5 14 8 8 6 5 7 7 8 5 3 4 6 4 3 3 4 4 4 3 3 4 7 9 9 8 7 7 6 7 7 10 11 15 15 16 17 16 18
5 7 5 7 5 6 10 7 5 5 6 7 6 5 3 3 3 5 1 1 2 3 3 3 3 1 4 7 7 7 6 7 7 10 9 7 10 11 16 19 16 14 15 16
7 5 4 5 5 8 5 4 4 5 5 5 4 3 2 3 4 1 0 1 0 2 2 2 3 2 4 6 6 5 6 7 5 7 8 10 11 14 13 15 14 17 14 15
11 8 9 8 11 6 4 5 3 3 4 4 4 3 3 4 2 2 1 1 2 2 2 1 2 3 4 5 5 7 8 7 9 9 7 8 8 9 9 14 14 15 18 12
16 9 5 5 13 10 8 3 2 2 3 3 2 3 3 3 3 2 3 3 2 1 1 1 1 3 4 5 5 6 6 5 5 7 7 9 8 5 8 7 9 13 18 18
Wind_Direction
202 211 227 32 27 356 7 350 26 105 104 298 110 143 145 140 125 135 128 115 124 116 100 103 81 71 72 59 24 18 15 12 16 7 4 354 345 340 327 327 329 324 331 322
222 92 61 33 13 320 302 301 10 134 158 262 170 156 171 144 157 122 132 129 158 131 130 111 94 87 72 43 29 4 9 6 5 7 0 353 345 339 329 333 336 309 328 314
32 94 90 295 249 326 69 335 358 349 325 241 227 198 192 158 142 136 143 145 121 142 103 113 72 67 50 32 9 358 1 360 3 1 351 343 343 331 334 324 314 318 321 312
81 108 259 260 48 343 352 328 319 291 268 294 208 291 164 169 155 159 138 121 127 103 87 68 61 22 17 1 353 359 353 358 355 355 348 344 339 337 332 330 320 325 318 323
45 176 253 277 16 337 5 332 309 298 268 296 40 61 128 111 154 184 129 106 118 86 77 53 35 11 340 348 5 1 347 348 349 343 341 336 330 328 326 319 319 324 328 316
103 39 5 9 284 322 308 281 271 256 269 255 149 247 51 41 36 121 113 113 95 82 61 18 332 356 346 355 355 345 345 346 345 342 334 335 323 325 321 322 329 328 325 321
228 148 110 330 311 212 290 334 318 314 328 311 210 298 43 41 35 70 116 114 113 119 332 5 313 330 10 358 345 342 345 347 339 331 334 329 325 335 331 331 332 334 328 317
248 180 300 25 13 334 296 340 303 328 313 309 329 58 79 47 59 104 130 141 116 15 28 334 8 354 347 344 340 344 348 342 341 345 337 333 336 339 337 330 327 328 328 328
307 63 148 41 350 350 347 332 333 287 271 275 108 95 107 61 64 66 120 139 235 303 309 3 359 355 344 349 348 359 340 344 336 340 346 350 347 338 330 324 323 315 319 321
339 303 101 49 301 178 342 313 332 327 305 321 93 80 46 35 50 35 32 336 12 346 36 21 357 341 350 359 1 352 350 342 338 345 352 345 342 344 345 339 336 338 332 331
358 298 245 225 39 359 341 11 336 319 329 318 323 82 47 20 37 29 30 19 27 24 24 353 350 359 11 2 348 343 343 346 350 355 350 357 356 350 349 353 348 346 350 358
45 312 297 22 60 356 45 7 359 335 329 3 295 78 66 28 44 23 71 27 18 14 10 352 354 12 5 359 348 351 348 348 0 354 357 2 339 347 354 0 354 2 5 17
4 66 301 157 168 215 58 11 360 311 261 307 338 86 66 53 69 33 8 47 43 3 358 360 354 4 4 352 359 360 2 4 5 6 358 342 1 12 9 9 9 12 18 15
3 306 297 345 43 340 57 17 5 6 355 339 43 16 87 6 14 63 45 39 353 2 359 5 12 12 358 358 2 3 7 9 20 7 358 4 3 12 17 22 29 29 41 38
352 335 321 48 41 31 48 34 32 10 16 342 354 35 25 11 10 16 17 352 1 5 6 10 17 360 357 6 9 10 10 15 14 8 355 16 18 20 16 10 11 28 40 34
345 86 282 150 115 30 89 93 0 25 358 348 354 37 8 31 338 18 5 7 347 11 16 31 4 359 6 9 11 12 13 19 8 6 23 11 34 36 35 36 31 43 44 44
332 208 267 183 91 246 36 22 6 355 355 12 353 3 355 56 74 37 54 340 353 26 16 20 2 4 10 15 4 18 22 11 17 18 17 18 38 34 35 41 49 55 57 53
163 285 297 36 251 209 72 45 347 343 46 25 2 7 0 354 353 45 23 12 21 13 25 7 3 10 9 2 33 22 20 21 16 16 12 21 23 28 26 32 41 45 46 41
351 318 125 302 190 99 149 46 2 344 26 39 358 344 351 332 325 68 47 33 41 42 15 6 6 12 17 41 22 19 14 10 5 8 11 21 26 29 26 34 43 43 41 65
196 233 274 347 292 39 64 25 347 314 176 6 352 348 346 336 330 119 99 66 50 33 21 17 12 52 46 29 15 1 4 4 6 9 8 31 39 51 60 60 70 86 71 73
246 254 346 85 266 92 32 348 317 295 29 358 355 356 352 4 23 54 76 62 34 26 28 26 34 55 36 13 357 357 359 0 9 12 30 40 53 43 42 54 56 47 37 33
106 317 61 276 283 82 9 0 7 9 2 354 6 360 25 39 75 86 91 32 29 27 37 37 51 36 11 352 358 355 5 34 25 38 65 65 60 50 54 52 48 39 46 55
51 31 9 7 53 43 23 46 30 15 21 8 10 24 37 68 85 114 57 34 5 19 49 38 355 21 9 352 12 15 39 54 74 72 74 75 72 55 51 45 46 46 40 46
95 15 52 136 67 27 61 39 34 32 35 28 42 28 47 80 100 49 75 352 96 56 41 51 354 42 9 10 26 54 78 97 76 84 77 64 48 55 52 50 41 40 38 32
7 332 29 41 20 65 108 42 54 56 46 45 32 65 84 90 88 81 26 79 126 85 97 78 103 30 35 38 70 73 100 92 76 81 56 72 56 64 47 39 52 41 33 31
6 9 21 39 31 2 34 68 96 65 37 31 67 97 78 87 102 56 59 98 118 83 143 166 123 324 88 98 94 86 89 68 62 75 76 57 37 6 26 355 6 39 32 34
Height
1513 1512 1518 1504 1504 1505 1506 1509 1515 1520 1526 1527 1534 1541 1549 1555 1564 1568 1572 1575 1577 1576 1577 1579 1578 1578 1579 1580 1582 1580 1577 1574 1570 1568 1566 1564 1562 1561 1560 1557 1555 1554 1551 1551
1506 1512 1510 1510 1510 1510 1508 1508 1546 1521 1523 1529 1529 1537 1548 1550 1553 1563 1571 1574 1576 1577 1579 1580 1581 1581 1579 1580 1579 1581 1577 1574 1571 1568 1565 1563 1561 1559 1557 1556 1554 1549 1549 1547
1507 1512 1516 1515 1513 1514 1514 1518 1517 1521 1521 1523 1527 1534 1546 1550 1555 1564 1569 1573 1577 1578 1580 1581 1582 1582 1581 1581 1581 1580 1576 1575 1570 1568 1565 1562 1560 1558 1555 1554 1551 1548 1546 1545
1512 1516 1517 1516 1517 1521 1524 1520 1518 1518 1525 1524 1518 1527 1532 1552 1563 1569 1570 1574 1577 1578 1580 1582 1583 1582 1581 1582 1581 1578 1577 1574 1570 1567 1565 1562 1559 1556 1554 1552 1549 1547 1544 1542
1526 1517 1517 1518 1525 1523 1523 1522 1520 1515 1514 1515 1510 1561 1534 1557 1570 1572 1569 1576 1579 1581 1582 1583 1583 1584 1582 1580 1579 1578 1576 1573 1569 1565 1563 1560 1558 1555 1552 1550 1546 1544 1542 1539
1516 1521 1523 1522 1526 1526 1525 1520 1511 1504 1511 1541 1527 1539 1556 1551 1554 1562 1574 1578 1581 1583 1583 1583 1583 1582 1582 1580 1578 1578 1575 1571 1568 1565 1561 1559 1555 1552 1549 1546 1544 1542 1540 1538
1522 1520 1525 1527 1524 1520 1520 1522 1534 1523 1521 1525 1521 1520 1570 1560 1561 1564 1575 1581 1583 1583 1582 1581 1583 1582 1579 1579 1577 1576 1572 1570 1567 1564 1560 1556 1553 1550 1547 1544 1542 1540 1538 1536
1522 1552 1530 1530 1531 1536 1529 1528 1536 1555 1546 1530 1502 1549 1575 1568 1571 1574 1577 1580 1583 1583 1583 1582 1582 1582 1581 1579 1576 1573 1572 1569 1566 1563 1559 1554 1551 1548 1546 1543 1540 1538 1536 1534
1530 1534 1531 1534 1533 1535 1536 1534 1529 1539 1522 1518 1531 1563 1564 1570 1573 1576 1577 1581 1583 1582 1581 1581 1582 1582 1580 1578 1575 1572 1570 1568 1565 1560 1557 1554 1551 1548 1544 1540 1537 1536 1534 1532
1528 1540 1530 1533 1535 1531 1535 1533 1542 1528 1546 1548 1540 1557 1570 1571 1573 1575 1578 1579 1580 1581 1582 1584 1583 1582 1580 1578 1574 1572 1570 1567 1563 1560 1557 1554 1550 1545 1542 1538 1534 1533 1531 1529
1533 1534 1534 1530 1542 1547 1543 1538 1541 1539 1540 1548 1542 1568 1566 1567 1568 1573 1578 1579 1579 1583 1583 1584 1581 1579 1578 1576 1576 1573 1570 1567 1562 1560 1557 1552 1549 1545 1541 1537 1533 1531 1529 1528
1543 1543 1547 1537 1544 1547 1545 1549 1547 1551 1553 1538 1539 1576 1568 1569 1573 1576 1578 1582 1583 1585 1584 1583 1582 1579 1579 1577 1576 1573 1568 1565 1564 1561 1556 1553 1548 1544 1541 1537 1533 1530 1529 1529
1548 1548 1556 1546 1551 1548 1551 1550 1548 1547 1546 1555 1554 1571 1565 1572 1574 1578 1581 1583 1587 1588 1586 1586 1583 1582 1581 1579 1576 1573 1570 1568 1565 1562 1558 1553 1548 1544 1541 1538 1533 1531 1531 1530
1554 1554 1555 1554 1556 1551 1554 1556 1553 1553 1553 1555 1564 1560 1572 1570 1571 1576 1581 1586 1587 1587 1588 1587 1586 1585 1582 1579 1577 1574 1571 1568 1566 1562 1559 1554 1549 1545 1543 1540 1535 1534 1532 1532
1556 1556 1552 1555 1555 1554 1557 1558 1560 1560 1562 1564 1560 1567 1572 1574 1576 1580 1584 1587 1588 1589 1588 1589 1588 1586 1583 1580 1578 1575 1572 1570 1568 1565 1560 1556 1551 1548 1544 1540 1538 1536 1535 1533
1558 1560 1554 1559 1558 1558 1560 1559 1559 1560 1561 1560 1562 1572 1577 1577 1581 1583 1586 1589 1589 1588 1591 1590 1589 1586 1584 1582 1579 1577 1574 1572 1569 1566 1562 1559 1555 1551 1547 1543 1541 1539 1537 1535
1559 1561 1557 1580 1558 1560 1572 1565 1564 1565 1563 1569 1573 1572 1574 1577 1581 1586 1590 1591 1589 1592 1592 1591 1589 1588 1585 1583 1580 1579 1577 1574 1571 1568 1566 1561 1557 1555 1551 1548 1545 1542 1540 1538
1560 1560 1555 1557 1558 1579 1568 1567 1569 1568 1567 1572 1573 1576 1579 1582 1583 1586 1589 1591 1591 1594 1593 1592 1590 1588 1587 1584 1583 1581 1579 1576 1573 1571 1567 1564 1561 1557 1554 1552 1549 1547 1544 1542
1561 1561 1562 1566 1564 1565 1568 1571 1573 1574 1574 1578 1579 1579 1578 1583 1584 1591 1593 1593 1595 1594 1594 1593 1591 1589 1587 1586 1585 1582 1580 1578 1575 1572 1569 1566 1564 1561 1558 1555 1553 1550 1548 1546
1561 1559 1558 1561 1568 1572 1574 1574 1575 1572 1584 1582 1582 1581 1581 1582 1573 1592 1594 1594 1595 1595 1594 1593 1592 1590 1588 1588 1586 1584 1581 1579 1576 1575 1572 1568 1568 1565 1562 1559 1556 1555 1553 1551
1573 1555 1563 1566 1567 1571 1576 1577 1575 1581 1589 1585 1586 1585 1585 1584 1590 1593 1594 1596 1596 1596 1595 1594 1593 1591 1590 1589 1587 1584 1582 1579 1577 1576 1573 1572 1571 1569 1567 1566 1563 1561 1558 1555
1570 1564 1561 1562 1565 1585 1582 1578 1583 1587 1587 1588 1588 1588 1588 1591 1592 1595 1596 1596 1596 1596 1595 1595 1594 1593 1592 1590 1587 1584 1583 1580 1580 1578 1576 1576 1574 1573 1571 1568 1566 1564 1561 1558
1581 1575 1575 1578 1583 1586 1587 1589 1590 1590 1589 1590 1590 1591 1592 1592 1595 1596 1596 1597 1596 1596 1595 1595 1594 1593 1593 1590 1588 1586 1584 1583 1583 1581 1580 1579 1578 1577 1574 1572 1571 1568 1566 1564
1573 1576 1574 1583 1584 1587 1589 1591 1592 1592 1592 1592 1593 1593 1593 1594 1596 1596 1597 1596 1596 1596 1595 1596 1594 1594 1593 1591 1589 1588 1587 1587 1586 1584 1584 1583 1582 1579 1577 1577 1575 1571 1569 1567
1580 1579 1580 1590 1587 1585 1588 1591 1593 1594 1594 1594 1594 1594 1595 1595 1597 1597 1597 1596 1596 1596 1596 1596 1595 1595 1594 1592 1591 1590 1589 1589 1588 1587 1587 1585 1584 1582 1580 1578 1576 1574 1572 1570
1590 1591 1591 1591 1591 1590 1592 1593 1594 1595 1595 1596 1596 1596 1597 1597 1598 1597 1597 1597 1597 1597 1597 1597 1596 1595 1594 1594 1593 1593 1593 1592 1591 1590 1589 1588 1586 1584 1583 1580 1577 1576 1574 1572